Regional Weather Roundup
Issued by NWS

Home | Current Version | Previous Version | Graphics & Text | Print | Product List | Glossary On
Versions: 1 2 3 4 5 6 7 8 9 10 11 12 13 14 15 16 17 18 19 20 21 22 23 24 25 26 27 28 29 30 31 32 33 34 35 36 37 38 39 40 41 42 43 44 45 46 47 48 49 50
000
ASUS43 KOAX 201110
RWRNE

WEATHER ROUNDUP FOR NEBRASKA
NATIONAL WEATHER SERVICE OMAHA NE
600 AM CDT MON OCT 20 2014

NOTES: SATELLITE DATA IS BEING USED TO AUGMENT CLOUD COVER ABOVE
       12000 FEET.
       "FAIR" INDICATES FEW OR NO CLOUDS BELOW 12,000 FEET WITH NO
       SIGNIFICANT WEATHER AND/OR OBSTRUCTIONS TO VISIBILITY.

  * THESE STATIONS DO NOT REPORT WEATHER SUCH AS RAIN...SNOW OR FOG.

NEZ001>004-019>022-054>056-201200-
NEBRASKA PANHANDLE

CITY           SKY/WX    TMP DP  RH WIND       PRES   REMARKS
SCOTTSBLUFF    CLEAR     37  34  89 CALM      30.11S
ALLIANCE       PTCLDY    30  28  92 SW5       30.11S WCI  25
CHADRON        CLEAR     33  32  96 W3        30.07F
KIMBALL        CLEAR     40  36  83 W8        30.12F WCI  35
SIDNEY         CLEAR     38  34  85 W6        30.13S WCI  33
$$

NEZ057>060-069>072-079>082-201200-
SOUTHWEST NEBRASKA

CITY           SKY/WX    TMP DP  RH WIND       PRES   REMARKS
NORTH PLATTE   CLEAR     35  32  88 CALM      30.10S
IMPERIAL       CLEAR     39  33  79 NW3       30.11S
LEXINGTON      CLEAR     39  37  91 W5        30.09R
MCCOOK         CLEAR     39  37  92 SW9       30.10R WCI  33
OGALLALA       CLEAR     36  34  92 CALM      30.11S
$$

NEZ005>010-023>029-035>040-094-201200-
NORTH CENTRAL NEBRASKA

CITY           SKY/WX    TMP DP  RH WIND       PRES   REMARKS
VALENTINE      CLEAR     35  32  88 W5        30.10S WCI  31
AINSWORTH      CLEAR     39  34  82 CALM      30.10R
BROKEN BOW     CLEAR     37  33  85 CALM      30.09R
O`NEILL        CLEAR     43  38  83 NW3       30.08S
ORD            CLEAR     37  34  89 W5        30.07R WCI  33
THEDFORD       CLEAR     38  35  87 W3        30.11S
$$

NEZ041-046>049-061>064-073>077-083>087-201200-
SOUTH CENTRAL NEBRASKA

CITY           SKY/WX    TMP DP  RH WIND       PRES   REMARKS
GRAND ISLAND   CLEAR     43  39  86 W5        30.06S
AURORA         CLEAR     43  41  93 NW7       30.05S
HASTINGS       CLEAR     46  41  82 N3        30.06R
HEBRON         CLEAR     45  42  90 CALM      30.04R
HOLDREGE       CLEAR     44  40  87 CALM      30.07S
KEARNEY *      CLEAR     45  39  81 W9        30.08R
YORK           CLEAR     45  41  87 NW6       30.04S
$$

NEZ011>018-030>034-042>045-201200-
NORTHEAST NEBRASKA

CITY           SKY/WX    TMP DP  RH WIND       PRES   REMARKS
NORFOLK        CLEAR     41  37  86 W5        30.06R
ALBION         CLEAR     44  37  79 N7        30.07R
BLAIR          CLEAR     51  45  79 N7        30.01R
COLUMBUS *     CLEAR     45  37  76 N3        30.06R
FREMONT        CLEAR     43  41  91 W5        30.03R
TEKAMAH        CLEAR     44  40  85 N7        30.02R
WAYNE          CLEAR     38  35  90 CALM      30.05S
$$

NEZ050>053-065>068-078-088>093-201200-
SOUTHEAST NEBRASKA

CITY           SKY/WX    TMP DP  RH WIND       PRES   REMARKS
LINCOLN        CLEAR     44  42  93 CALM      30.04R
OMAHA EPPLEY   CLEAR     47  44  90 N8        30.02R
BEATRICE       FOG       44  43  98 NW3       30.02R VSB 1/2
FALLS CITY     CLEAR     49  47  93 N5        29.98R
NEBRASKA CITY  CLEAR     50  45  83 NW7       30.00R
PLATTSMOUTH    CLEAR     49  45  87 NW3       30.01R
$$

NEZ044-045-051>053-067-201200-
OMAHA AREA

CITY           SKY/WX    TMP DP  RH WIND       PRES   REMARKS
OMAHA EPPLEY   CLEAR     47  44  90 N8        30.02R
BLAIR          CLEAR     51  45  79 N7        30.01R
FREMONT        CLEAR     43  41  91 W5        30.03R
MILLARD        CLEAR     49  46  87 NW3       30.02R
OFFUTT AFB     CLEAR     44  44 100 NW9       30.01R
PLATTSMOUTH    CLEAR     49  45  87 NW3       30.01R
WAHOO          FAIR      48  41  75 N8        30.02R
$$



USA.gov is the U.S. government's official web portal to all federal, state and local government web resources and services.